Theta_e
350 350 349 349 347 346 346 345 345 346 346 344 344 344 342 341 340 340 341 342 341 341 341 340 339 340 339 339 338 339 338 333 335 329 333 334 335 330 330 330 327 324 325
347 346 346 347 348 347 345 345 344 344 343 342 343 342 340 339 338 338 339 339 339 341 341 339 338 338 338 338 338 336 335 332 331 330 328 331 333 335 334 334 330 328 327
344 343 344 344 344 345 343 343 343 343 342 342 342 340 339 337 335 336 337 337 338 339 340 340 340 338 338 336 334 335 335 333 333 331 328 329 330 330 334 331 331 330 326
345 344 343 342 342 343 342 343 342 341 340 337 334 336 336 335 334 336 337 337 337 339 339 338 337 336 335 331 329 331 335 334 332 331 331 328 327 326 329 328 327 327 324
345 345 343 341 341 344 343 342 340 339 333 335 335 335 335 333 335 336 335 335 335 337 336 337 335 331 331 331 329 330 334 336 334 333 330 328 326 324 325 326 326 324 324
345 345 342 340 341 342 343 340 338 334 334 334 337 334 334 333 335 335 335 334 335 336 335 336 334 331 326 324 325 325 326 330 331 331 331 331 328 325 326 325 325 327 328
345 343 341 340 340 342 341 340 337 335 335 334 335 335 335 335 333 336 335 333 333 333 334 335 334 334 333 329 327 327 325 325 329 332 331 330 329 329 327 329 328 329 328
344 342 341 340 339 340 339 339 338 337 336 335 335 334 334 333 333 336 335 333 332 331 333 333 333 334 333 330 331 331 331 329 326 327 331 330 330 331 329 330 330 331 329
344 342 340 339 338 340 340 340 339 338 337 336 335 335 334 335 333 335 335 332 332 332 332 332 331 333 333 331 332 330 330 330 327 327 327 326 326 326 329 329 329 327 327
345 342 340 338 337 336 337 339 339 339 338 336 336 335 337 336 334 334 334 332 333 332 330 332 332 332 333 329 331 330 329 328 327 325 322 318 318 320 319 325 330 330 329
345 341 340 338 336 337 338 337 337 337 337 337 336 334 335 335 334 334 334 333 332 329 329 333 333 331 331 331 330 331 329 328 329 328 326 324 325 325 323 318 320 320 323
343 341 340 338 337 336 337 335 335 335 335 334 335 335 335 335 335 335 333 333 332 332 332 333 332 330 330 329 328 329 327 326 327 327 326 325 326 325 326 327 326 319 318
342 341 340 339 337 336 336 335 334 334 334 334 334 334 334 334 334 334 333 333 333 332 332 331 331 329 328 327 326 325 326 326 326 326 326 326 326 326 327 327 328 327 325
343 342 340 339 337 336 336 334 333 334 334 335 335 335 333 333 333 333 334 333 332 332 330 329 329 327 326 326 326 325 326 327 327 326 325 326 326 327 328 328 326 325 327
336 342 340 339 334 334 335 334 334 334 335 334 334 332 331 331 331 332 332 331 330 330 328 325 322 321 325 326 327 326 326 326 326 326 327 327 328 328 328 327 328 326 326
342 335 326 334 334 335 334 334 333 333 333 332 332 331 330 330 330 329 329 329 328 327 324 325 326 326 324 322 322 322 323 324 324 326 326 326 326 327 327 328 328 327 326
340 332 327 332 335 336 335 335 334 332 332 331 331 331 329 329 328 328 326 326 326 326 326 326 327 327 327 327 326 325 323 320 320 322 325 326 325 325 325 327 328 327 326
340 333 335 335 334 335 336 334 334 334 333 332 331 331 331 329 329 329 328 326 324 325 328 328 329 329 329 328 328 327 327 327 326 323 320 320 323 325 325 326 326 328 328
337 335 335 334 334 333 337 335 334 334 333 332 331 331 330 329 329 328 328 327 328 327 327 327 328 329 329 329 329 329 328 328 328 329 328 327 324 323 322 322 323 325 326
337 337 335 335 335 334 334 335 335 334 334 332 331 330 329 326 326 325 324 325 327 328 328 328 328 328 329 329 329 329 329 329 328 328 328 328 328 328 327 324 321 321 322
335 337 335 333 333 333 333 333 334 335 333 330 329 328 328 327 326 326 327 326 326 327 327 327 327 327 327 328 329 329 329 329 328 329 328 328 327 328 328 328 326 325 326
336 336 334 330 332 333 332 332 333 335 334 332 330 329 328 327 329 330 332 331 330 329 329 329 329 329 329 329 327 328 328 328 328 329 328 328 328 328 327 327 327 327 328
338 336 335 333 333 333 332 330 330 330 331 332 332 331 329 328 329 329 330 331 331 330 330 329 329 329 329 329 329 327 327 328 328 328 328 329 329 329 328 328 327 327 327
334 336 336 335 336 333 332 331 330 330 331 331 332 332 331 331 330 330 331 331 331 332 331 330 329 328 328 327 327 327 327 327 327 327 327 328 329 329 328 328 328 328 328
335 334 335 335 334 330 332 332 333 332 331 331 331 333 333 333 332 332 331 332 332 331 331 332 331 328 327 327 327 328 327 327 326 326 327 327 327 328 328 327 327 328 328
334 335 335 334 333 331 331 333 334 334 334 334 334 333 333 334 335 334 334 333 332 332 332 330 329 329 329 329 329 328 327 326 325 324 323 324 326 326 327 327 328 328 328
Wind_Speed
3 5 7 10 14 16 19 21 23 23 23 22 21 20 23 20 15 13 17 19 24 26 25 24 25 24 24 25 23 21 23 18 10 5 13 12 19 16 13 12 11 11 9
4 5 7 9 11 14 16 19 19 21 22 22 20 19 20 16 15 15 16 17 18 16 15 13 16 13 14 15 18 18 16 16 10 12 11 9 10 14 12 13 12 10 10
7 8 10 10 11 13 15 16 18 20 22 22 23 18 15 16 14 15 17 13 14 15 14 12 11 12 10 10 12 14 16 21 18 14 12 15 14 13 15 12 12 10 10
9 9 11 10 12 13 15 16 17 20 20 14 17 18 19 16 12 13 13 13 12 11 10 9 10 12 14 14 12 11 13 15 16 15 15 14 14 16 13 13 11 11 11
12 11 11 11 12 13 16 19 19 18 12 8 8 18 16 12 12 14 14 15 14 11 9 12 13 13 15 14 13 12 13 14 13 12 10 9 11 12 16 13 14 13 12
13 13 11 12 11 13 15 18 20 21 14 14 12 15 19 13 15 14 16 16 13 14 15 13 12 12 11 11 12 10 13 15 14 14 13 15 16 16 15 16 14 13 11
14 12 11 12 12 10 14 18 20 21 16 15 16 17 16 14 16 17 17 19 19 17 16 14 14 12 13 14 12 10 10 10 10 13 14 16 15 15 15 14 13 12 10
15 13 11 11 12 11 11 18 18 18 15 14 18 21 24 20 19 17 18 20 18 15 14 15 15 13 14 14 13 11 10 9 9 8 10 12 10 13 15 14 13 10 7
15 14 12 11 11 11 13 15 16 17 14 14 18 21 21 19 21 21 22 21 17 15 14 15 17 16 15 16 13 12 10 10 11 10 8 8 9 9 11 10 12 14 13
15 14 12 11 11 12 12 13 16 16 14 13 15 18 20 19 21 24 25 21 16 16 16 16 18 16 16 16 14 14 13 13 11 10 10 11 11 12 12 12 11 13 14
12 12 12 12 12 11 10 12 15 16 18 16 13 17 20 20 20 23 26 19 19 19 21 19 20 18 17 19 18 15 15 12 11 11 10 9 10 11 13 17 16 16 15
12 13 14 15 13 12 11 11 12 13 14 15 15 16 19 20 24 21 25 24 22 19 23 22 20 20 19 18 18 17 16 13 10 11 14 14 13 13 13 13 16 18 17
15 16 15 15 15 13 12 11 11 14 14 14 14 13 13 14 15 19 22 22 18 18 17 15 16 17 18 19 19 16 16 14 14 14 15 16 15 15 14 14 15 16 19
15 15 14 16 16 14 12 12 12 14 14 13 13 12 11 15 16 17 19 20 17 17 17 14 14 14 16 16 15 18 15 16 18 19 19 18 17 15 15 16 16 18 18
15 11 7 11 15 15 16 15 15 15 18 18 16 20 16 12 17 20 23 20 19 18 15 12 12 13 16 17 17 17 16 16 15 15 17 18 17 17 16 16 17 17 20
16 17 12 21 18 18 18 17 21 18 19 20 13 16 17 17 17 19 20 20 20 20 15 14 15 16 17 19 19 21 22 22 21 19 17 17 17 18 18 18 19 20 21
19 21 21 22 19 19 20 18 17 19 22 18 18 17 19 14 18 15 17 17 18 16 15 16 18 19 20 20 20 19 20 23 24 24 23 22 20 19 18 19 20 21 22
22 20 13 11 15 18 22 20 19 18 18 21 23 23 22 20 17 15 16 15 12 16 18 20 20 20 20 20 21 23 23 22 22 24 26 28 27 26 24 23 22 22 23
20 17 14 14 12 18 20 20 19 20 20 19 18 20 25 22 21 20 19 19 19 19 20 21 21 20 20 19 19 19 20 21 22 23 24 26 26 27 29 30 29 28 26
15 15 17 16 18 22 21 19 20 20 20 19 19 19 18 19 18 20 23 22 23 24 23 23 23 23 22 22 22 22 21 21 22 24 25 25 26 28 28 27 27 28 27
15 13 18 14 16 18 16 15 19 21 20 20 21 20 22 21 21 21 23 24 25 26 27 27 27 26 28 28 28 28 27 27 26 26 28 28 28 28 29 29 29 29 29
14 14 14 16 16 14 15 16 18 19 19 19 20 19 22 22 18 20 20 22 25 27 29 28 28 28 28 26 25 26 27 28 27 29 29 30 30 30 30 30 30 32 32
9 10 12 13 16 16 14 16 15 15 14 16 16 17 15 18 20 21 22 22 22 23 23 22 24 25 25 26 29 28 27 28 31 30 30 31 29 30 32 32 32 32 32
5 9 10 12 12 13 11 12 16 18 14 15 15 15 18 18 18 22 24 24 25 25 25 26 22 22 23 25 25 24 27 30 30 29 31 32 31 30 32 31 32 33 34
4 4 6 9 11 15 11 12 11 13 15 18 18 18 15 18 18 21 20 18 18 17 19 17 17 20 22 25 27 26 27 30 32 30 28 30 31 31 32 32 32 31 31
5 6 6 7 10 12 15 15 11 10 12 14 12 13 11 13 13 13 12 11 11 11 11 11 12 16 19 22 21 24 27 29 33 35 34 30 30 31 33 34 34 32 32
Wind_Direction
249 261 264 262 260 257 253 253 251 249 243 239 232 216 214 221 224 224 222 228 236 232 227 226 228 223 213 221 229 232 225 209 205 157 179 169 189 184 190 193 192 189 201
275 284 285 286 275 263 259 263 254 243 242 237 220 208 209 207 217 216 228 225 232 231 227 225 232 220 203 213 213 220 222 191 160 149 164 173 176 199 194 195 196 201 204
279 294 300 298 287 269 266 262 262 252 240 219 216 216 229 230 240 233 240 227 226 219 207 199 198 192 194 187 200 207 201 198 198 167 153 182 199 216 207 201 202 203 200
267 279 290 297 292 281 275 265 256 239 214 219 241 235 221 218 226 230 216 219 219 218 207 201 207 207 195 184 190 194 189 191 191 176 176 175 187 203 198 196 194 207 201
263 273 285 299 295 288 280 259 248 217 206 201 208 192 192 208 207 206 211 216 220 215 208 206 204 202 198 191 182 180 176 183 186 187 186 182 183 180 194 189 194 192 205
256 268 283 300 299 296 266 251 234 211 223 219 202 195 196 205 211 210 211 215 216 210 201 192 191 194 186 188 191 197 188 181 185 192 196 197 189 179 181 180 181 179 186
249 259 275 291 291 283 263 241 227 217 220 221 204 201 197 204 216 215 205 210 208 205 197 183 177 186 182 185 184 182 187 200 200 185 185 190 181 184 178 180 190 188 193
244 246 253 268 276 276 265 227 224 215 213 217 214 211 210 212 218 216 211 213 211 207 206 191 186 185 184 176 169 171 176 183 191 187 186 185 186 188 190 196 200 189 191
241 242 246 248 258 258 256 241 238 232 219 210 217 215 211 214 219 215 216 211 209 205 205 199 193 192 188 188 177 175 173 182 192 187 181 180 182 179 185 179 194 199 208
240 240 237 242 247 247 249 240 233 228 220 212 219 233 217 218 226 218 214 205 204 198 203 205 198 196 193 189 185 182 183 192 189 199 209 211 211 208 208 203 200 204 215
237 232 231 236 237 241 241 236 235 223 214 215 222 231 227 225 238 225 207 202 202 196 204 199 196 199 197 198 195 195 202 195 204 211 212 209 208 212 221 225 220 222 227
234 232 227 224 226 233 229 226 218 220 217 225 223 219 232 236 233 213 203 210 210 204 208 204 194 201 204 206 207 209 210 216 219 216 214 217 222 226 229 229 230 230 232
230 227 223 221 221 222 219 222 206 209 207 202 199 194 199 205 201 202 203 204 213 211 199 192 197 200 205 209 213 216 220 224 227 227 224 229 233 240 241 232 231 233 237
245 234 224 215 209 213 214 217 211 201 198 200 200 195 184 186 187 193 196 204 204 205 210 202 200 200 202 211 214 220 222 225 228 233 235 237 241 238 230 230 233 230 232
237 248 274 247 217 204 217 213 217 215 205 201 200 190 175 184 196 195 197 195 197 198 187 188 194 202 211 217 221 220 219 221 223 229 233 235 234 231 232 228 228 229 229
199 184 175 242 235 217 218 222 226 221 222 216 214 204 204 211 210 214 212 213 207 203 194 205 212 215 219 222 223 226 227 228 230 232 233 233 233 233 234 230 226 226 229
222 210 216 199 210 213 212 215 224 226 228 228 227 224 216 217 219 209 210 213 217 217 217 220 226 225 228 228 228 229 231 230 229 230 233 235 237 238 235 235 229 229 233
238 238 226 204 202 216 215 209 219 221 214 222 229 226 223 218 221 216 212 208 200 210 222 227 228 231 233 234 235 236 239 240 233 233 234 237 239 239 237 235 235 233 232
245 251 220 209 219 228 224 212 217 224 223 221 220 225 221 217 219 218 217 211 216 218 224 231 235 237 236 234 233 232 231 233 233 234 236 234 234 235 237 239 239 237 235
256 237 201 205 211 211 205 209 213 222 223 219 213 216 205 207 210 212 214 216 225 231 232 233 236 238 237 236 235 235 236 239 239 236 237 235 234 232 234 234 234 236 232
265 238 207 201 213 195 203 201 214 224 222 220 216 210 204 198 206 211 212 218 226 233 237 238 242 242 237 238 237 236 238 243 244 243 241 237 234 231 231 232 233 232 235
251 241 207 222 232 199 207 210 223 225 228 223 222 219 220 216 225 230 232 232 235 236 240 241 244 245 245 243 241 240 239 238 247 248 240 239 237 234 231 232 234 236 238
267 246 226 219 212 210 200 208 220 220 220 241 240 230 215 223 231 234 240 242 241 242 243 243 246 252 251 246 241 240 239 245 244 245 242 243 238 235 235 232 230 232 232
263 254 237 231 210 191 196 211 217 220 220 239 242 240 236 237 246 249 247 249 250 251 249 251 251 253 260 259 256 250 244 246 252 250 246 246 244 241 237 235 233 233 235
276 246 227 227 215 214 232 237 236 223 216 231 233 234 240 238 242 245 249 251 252 254 254 248 247 255 267 271 263 263 258 257 255 250 246 247 243 244 243 238 235 235 236
331 297 273 237 248 246 255 262 246 233 243 251 238 252 246 257 251 251 254 259 259 258 258 264 275 278 276 274 275 270 269 270 268 263 253 250 247 242 240 240 240 236 236